CW5619 Weather Reports


time (UTC)temp
C
wind
direction
speed
KPH
gust
KPH
rain 1hr
cm
rain 24hr
cm
rain mn
cm
humidity
%
barometer
mb
20260508100402 16 87 0.0 1.6 0.00 0.00 0.00 43 1013.0
20260508095903 16 87 0.0 3.2 0.00 0.00 0.00 42 1013.1
20260508095403 16 87 0.0 3.2 0.00 0.00 0.00 42 1012.9
20260508094902 16 87 0.0 3.2 0.00 0.00 0.00 42 1012.9
20260508094403 16 72 1.6 3.2 0.00 0.00 0.00 42 1012.9
20260508093403 16 98 1.6 4.8 0.00 0.00 0.00 41 1012.9
20260508091903 17 69 0.0 3.2 0.00 0.00 0.00 40 1012.9
20260508090903 17 88 0.0 4.8 0.00 0.00 0.00 39 1013.0
20260508090402 17 91 0.0 4.8 0.00 0.00 0.00 40 1013.0
20260508085903 17 96 1.6 3.2 0.00 0.00 0.00 40 1012.9
20260508085403 17 61 0.0 3.2 0.00 0.00 0.00 39 1013.0
20260508084903 17 61 1.6 3.2 0.00 0.00 0.00 38 1013.0
20260508084404 18 55 1.6 3.2 0.00 0.00 0.00 38 1013.1
20260508083904 18 54 0.0 3.2 0.00 0.00 0.00 38 1013.1
20260508083403 18 46 1.6 3.2 0.00 0.00 0.00 38 1013.1
20260508082903 18 45 0.0 4.8 0.00 0.00 0.00 38 1013.2
20260508082402 18 71 1.6 4.8 0.00 0.00 0.00 38 1013.3
20260508081902 18 71 0.0 3.2 0.00 0.00 0.00 38 1013.3
20260508081402 18 72 1.6 3.2 0.00 0.00 0.00 37 1013.3
20260508080902 18 64 1.6 3.2 0.00 0.00 0.00 38 1013.2
20260508080404 18 59 1.6 3.2 0.00 0.00 0.00 38 1013.3
20260508075903 18 81 0.0 0.0 0.00 0.00 0.00 39 1013.3
20260508075404 18 81 0.0 0.0 0.00 0.00 0.00 40 1013.4
20260508074903 18 81 0.0 0.0 0.00 0.00 0.00 42 1013.5
20260508074403 18 81 0.0 0.0 0.00 0.00 0.00 41 1013.5
20260508073903 18 81 0.0 0.0 0.00 0.00 0.00 38 1013.6
20260508073402 18 81 0.0 0.0 0.00 0.00 0.00 38 1013.7
20260508072904 18 81 0.0 0.0 0.00 0.00 0.00 38 1013.7
20260508071903 19 81 0.0 0.0 0.00 0.00 0.00 37 1013.6
20260508071403 19 81 0.0 0.0 0.00 0.00 0.00 36 1013.7
20260508070903 19 81 0.0 0.0 0.00 0.00 0.00 35 1013.6
20260508070402 20 81 0.0 0.0 0.00 0.00 0.00 34 1013.7
20260508065904 20 81 0.0 0.0 0.00 0.00 0.00 33 1013.6
20260508065403 20 81 0.0 0.0 0.00 0.00 0.00 33 1013.6
20260508064903 20 81 0.0 0.0 0.00 0.00 0.00 32 1013.6
20260508064402 20 81 0.0 0.0 0.00 0.00 0.00 32 1013.6
20260508063903 20 81 0.0 0.0 0.00 0.00 0.00 32 1013.7
20260508063403 20 81 0.0 1.6 0.00 0.00 0.00 32 1013.7
20260508062903 20 81 0.0 1.6 0.00 0.00 0.00 32 1013.7
20260508062402 21 81 0.0 1.6 0.00 0.00 0.00 31 1013.8
20260508061904 21 81 0.0 1.6 0.00 0.00 0.00 30 1013.8
20260508061403 21 81 0.0 1.6 0.00 0.00 0.00 30 1013.8
20260508060904 21 81 0.0 1.6 0.00 0.00 0.00 29 1013.8
20260508055903 21 82 0.0 4.8 0.00 0.00 0.00 28 1013.8
20260508054902 21 61 1.6 3.2 0.00 0.00 0.00 29 1013.8
20260508054403 22 61 0.0 1.6 0.00 0.00 0.00 28 1013.9
20260508053903 22 61 0.0 1.6 0.00 0.00 0.00 28 1013.9
20260508053403 22 61 0.0 1.6 0.00 0.00 0.00 26 1013.8
20260508052902 22 61 0.0 3.2 0.00 0.00 0.00 26 1013.7
20260508052404 22 61 0.0 3.2 0.00 0.00 0.00 25 1013.7
20260508051903 22 64 1.6 3.2 0.00 0.00 0.00 25 1013.7
20260508051402 22 67 1.6 3.2 0.00 0.00 0.00 26 1013.7
20260508045402 23 61 0.0 3.2 0.00 0.00 0.00 25 1013.3
20260508044402 25 70 1.6 4.8 0.00 0.00 0.00 22 1013.2
20260508043903 25 82 1.6 4.8 0.00 0.00 0.00 20 1013.2
20260508042903 25 163 0.0 8.0 0.00 0.00 0.00 19 1013.0
20260508042402 26 201 3.2 12.9 0.00 0.00 0.00 19 1013.0
20260508041902 26 241 3.2 16.1 0.00 0.00 0.00 19 1012.9
20260508041404 26 224 6.4 16.1 0.00 0.00 0.00 19 1012.8
20260508040403 26 238 8.0 16.1 0.00 0.00 0.00 19 1012.8
20260508035904 26 228 4.8 12.9 0.00 0.00 0.00 18 1012.6
20260508035403 26 244 4.8 12.9 0.00 0.00 0.00 18 1012.6
20260508034902 26 235 6.4 12.9 0.00 0.00 0.00 18 1012.6
20260508034403 26 224 4.8 12.9 0.00 0.00 0.00 18 1012.5
20260508033902 26 221 6.4 14.5 0.00 0.00 0.00 18 1012.3
20260508033402 26 218 1.6 14.5 0.00 0.00 0.00 18 1012.3
20260508032904 26 258 0.0 8.0 0.00 0.00 0.00 17 1012.0
20260508032403 26 200 3.2 8.0 0.00 0.00 0.00 17 1011.9
20260508031903 26 169 1.6 11.3 0.00 0.00 0.00 17 1011.9
20260508031403 26 219 1.6 11.3 0.00 0.00 0.00 17 1011.8
20260508025902 27 235 3.2 9.7 0.00 0.00 0.00 16 1011.4
20260508025403 27 248 1.6 12.9 0.00 0.00 0.00 16 1011.3
20260508024903 27 240 4.8 12.9 0.00 0.00 0.00 15 1011.2
20260508023903 28 248 3.2 11.3 0.00 0.00 0.00 12 1011.0
20260508023402 28 221 1.6 11.3 0.00 0.00 0.00 12 1010.8
20260508022903 28 247 3.2 11.3 0.00 0.00 0.00 12 1010.7
20260508022402 28 232 4.8 11.3 0.00 0.00 0.00 12 1010.6
20260508021403 28 233 4.8 12.9 0.00 0.00 0.00 12 1010.5
20260508020903 29 219 1.6 12.9 0.00 0.00 0.00 12 1010.4
20260508020403 29 223 4.8 12.9 0.00 0.00 0.00 12 1010.4
20260508015903 29 239 3.2 12.9 0.00 0.00 0.00 12 1010.2
20260508015403 29 240 4.8 12.9 0.00 0.00 0.00 12 1010.2
20260508014903 30 217 3.2 16.1 0.00 0.00 0.00 12 1010.1
20260508014403 30 208 4.8 16.1 0.00 0.00 0.00 11 1010.1
20260508013403 30 188 3.2 11.3 0.00 0.00 0.00 11 1010.0
20260508012903 30 216 4.8 11.3 0.00 0.00 0.00 11 1009.9
20260508012403 30 204 1.6 12.9 0.00 0.00 0.00 11 1009.9
20260508011902 30 193 4.8 14.5 0.00 0.00 0.00 11 1009.9
20260508011403 30 259 3.2 14.5 0.00 0.00 0.00 11 1009.9
20260508010903 30 275 3.2 16.1 0.00 0.00 0.00 11 1009.9
20260508010403 31 224 4.8 19.3 0.00 0.00 0.00 11 1009.9
20260508005903 31 191 4.8 19.3 0.00 0.00 0.00 11 1009.7
20260508005402 31 224 8.0 19.3 0.00 0.00 0.00 11 1009.6
20260508004903 31 214 4.8 12.9 0.00 0.00 0.00 11 1009.6
20260508004402 31 293 3.2 12.9 0.00 0.00 0.00 11 1009.5
20260508003903 31 260 4.8 16.1 0.00 0.00 0.00 11 1009.6
20260508003403 31 337 3.2 16.1 0.00 0.00 0.00 11 1009.5
20260508002902 31 248 8.0 16.1 0.00 0.00 0.00 11 1009.5
20260508001403 31 84 4.8 14.5 0.00 0.00 0.00 11 1009.5
20260508000405 32 305 6.4 14.5 0.00 0.00 0.00 11 1009.6
20260507235402 32 252 3.2 11.3 0.00 0.00 0.00 11 1009.4
20260507234903 32 223 4.8 12.9 0.00 0.00 0.00 11 1009.4
20260507234403 32 268 3.2 16.1 0.00 0.00 0.00 11 1009.4
20260507233903 32 198 4.8 16.1 0.00 0.00 0.00 12 1009.4
20260507233402 32 296 6.4 16.1 0.00 0.00 0.00 12 1009.4
20260507232903 32 190 3.2 16.1 0.00 0.00 0.00 12 1009.4
20260507232403 32 257 1.6 4.8 0.00 0.00 0.00 12 1009.6
20260507231903 32 23 3.2 16.1 0.00 0.00 0.00 12 1009.5
20260507231403 32 58 3.2 16.1 0.00 0.00 0.00 12 1009.6
20260507230903 32 323 4.8 16.1 0.00 0.00 0.00 12 1009.6
20260507230403 32 308 4.8 19.3 0.00 0.00 0.00 12 1009.6
20260507225902 32 236 9.7 19.3 0.00 0.00 0.00 11 1009.5
20260507225403 32 209 8.0 24.1 0.00 0.00 0.00 12 1009.6
20260507224903 33 217 4.8 24.1 0.00 0.00 0.00 12 1009.8
20260507224403 33 208 3.2 8.0 0.00 0.00 0.00 12 1009.6
20260507223903 32 345 3.2 16.1 0.00 0.00 0.00 12 1009.7
20260507223403 33 207 3.2 16.1 0.00 0.00 0.00 11 1009.7
20260507222903 33 221 4.8 16.1 0.00 0.00 0.00 12 1009.8
20260507222403 33 86 4.8 19.3 0.00 0.00 0.00 12 1009.9
20260507221903 33 276 3.2 19.3 0.00 0.00 0.00 12 1010.0
20260507221403 33 200 4.8 14.5 0.00 0.00 0.00 11 1010.0
20260507220903 33 267 3.2 14.5 0.00 0.00 0.00 11 1010.1
20260507220403 33 29 3.2 14.5 0.00 0.00 0.00 12 1010.2
20260507215902 32 13 8.0 14.5 0.00 0.00 0.00 12 1010.1
20260507215402 33 91 3.2 12.9 0.00 0.00 0.00 12 1010.3
20260507214904 32 222 4.8 12.9 0.00 0.00 0.00 12 1010.2
20260507214403 32 191 3.2 11.3 0.00 0.00 0.00 13 1010.3
20260507213903 32 229 4.8 14.5 0.00 0.00 0.00 13 1010.4
20260507213403 32 234 3.2 16.1 0.00 0.00 0.00 13 1010.4
20260507212902 33 229 4.8 16.1 0.00 0.00 0.00 12 1010.6
20260507212403 33 234 4.8 12.9 0.00 0.00 0.00 12 1010.7
20260507211903 33 71 3.2 14.5 0.00 0.00 0.00 12 1010.7
20260507211403 33 187 4.8 14.5 0.00 0.00 0.00 13 1010.9
20260507210902 33 226 4.8 14.5 0.00 0.00 0.00 12 1010.9
20260507210402 33 2 6.4 19.3 0.00 0.00 0.00 12 1011.1
20260507205903 32 314 4.8 19.3 0.00 0.00 0.00 12 1011.0
20260507205402 32 197 8.0 14.5 0.00 0.00 0.00 11 1011.0
20260507204404 32 217 4.8 16.1 0.00 0.00 0.00 11 1011.1
20260507203903 32 236 4.8 11.3 0.00 0.00 0.00 11 1011.3
20260507203403 32 240 3.2 12.9 0.00 0.00 0.00 11 1011.4
20260507202904 32 238 4.8 19.3 0.00 0.00 0.00 11 1011.4
20260507202402 33 215 6.4 19.3 0.00 0.00 0.00 11 1011.4
20260507201902 32 2 3.2 16.1 0.00 0.00 0.00 11 1011.5
20260507201403 32 90 3.2 16.1 0.00 0.00 0.00 11 1011.7
20260507200904 32 244 3.2 14.5 0.00 0.00 0.00 11 1011.6
20260507195903 32 201 3.2 16.1 0.00 0.00 0.00 10 1011.7
20260507195403 32 228 6.4 16.1 0.00 0.00 0.00 11 1011.8
20260507193903 32 226 4.8 9.7 0.00 0.00 0.00 11 1012.0
20260507192903 32 242 1.6 4.8 0.00 0.00 0.00 11 1012.2
20260507192403 31 269 1.6 4.8 0.00 0.00 0.00 12 1012.3
20260507191903 31 337 1.6 4.8 0.00 0.00 0.00 12 1012.4
20260507191403 31 323 1.6 8.0 0.00 0.00 0.00 12 1012.5
20260507190903 31 355 3.2 11.3 0.00 0.00 0.00 12 1012.7
20260507190403 31 253 3.2 11.3 0.00 0.00 0.00 13 1012.8
20260507185903 31 279 3.2 8.0 0.00 0.00 0.00 13 1012.6
20260507185403 31 7 3.2 8.0 0.00 0.00 0.00 14 1012.7
20260507184903 30 67 3.2 8.0 0.00 0.00 0.00 14 1012.8
20260507183903 29 219 1.6 8.0 0.00 0.00 0.00 14 1012.9
20260507183403 30 223 3.2 8.0 0.00 0.00 0.00 14 1013.0
20260507182403 29 214 3.2 4.8 0.00 0.00 0.00 14 1013.1
20260507181903 29 222 1.6 8.0 0.00 0.00 0.00 15 1013.3
20260507181403 28 217 3.2 8.0 0.00 0.00 0.00 15 1013.4
20260507180903 28 215 1.6 4.8 0.00 0.00 0.00 15 1013.5
20260507180403 27 94 0.0 4.8 0.00 0.00 0.00 14 1013.6
20260507175902 28 124 3.2 4.8 0.00 0.00 0.00 16 1013.4
20260507175403 28 63 3.2 4.8 0.00 0.00 0.00 17 1013.5
20260507174903 27 55 1.6 4.8 0.00 0.00 0.00 18 1013.5
20260507174403 28 349 3.2 4.8 0.00 0.00 0.00 18 1013.6
20260507173903 28 329 3.2 8.0 0.00 0.00 0.00 18 1013.6
20260507173403 27 321 3.2 8.0 0.00 0.00 0.00 19 1013.8
20260507172904 27 56 1.6 4.8 0.00 0.00 0.00 19 1013.8
20260507172403 27 58 1.6 4.8 0.00 0.00 0.00 20 1013.9
20260507171902 26 0 0.0 4.8 0.00 0.00 0.00 20 1014.0
20260507171403 26 209 0.0 4.8 0.00 0.00 0.00 20 1014.0
20260507170403 26 252 1.6 4.8 0.00 0.00 0.00 20 1014.0
20260507165903 26 251 1.6 4.8 0.00 0.00 0.00 20 1014.1
20260507165403 25 40 1.6 4.8 0.00 0.00 0.00 21 1014.1
20260507164903 25 147 1.6 4.8 0.00 0.00 0.00 22 1014.2
20260507164403 25 5 1.6 3.2 0.00 0.00 0.00 21 1014.2
20260507163403 24 333 1.6 4.8 0.00 0.00 0.00 22 1014.2
20260507162903 24 221 0.0 4.8 0.00 0.00 0.00 22 1014.4
20260507162403 23 152 1.6 12.9 0.00 0.00 0.00 23 1014.3
20260507161904 23 128 4.8 12.9 0.00 0.00 0.00 24 1014.4
20260507161403 23 111 1.6 4.8 0.00 0.00 0.00 24 1014.4
20260507160903 23 140 1.6 4.8 0.00 0.00 0.00 24 1014.4
20260507160403 23 195 1.6 4.8 0.00 0.00 0.00 25 1014.6
20260507155903 23 168 1.6 4.8 0.00 0.00 0.00 24 1014.6
20260507155403 23 148 3.2 8.0 0.00 0.00 0.00 24 1014.7
20260507153903 22 143 1.6 8.0 0.00 0.00 0.00 25 1014.7
20260507152903 21 140 3.2 11.3 0.00 0.00 0.00 26 1014.7
20260507152402 21 116 3.2 4.8 0.00 0.00 0.00 26 1014.7
20260507151902 21 157 1.6 8.0 0.00 0.00 0.00 28 1014.7
20260507151404 20 120 1.6 11.3 0.00 0.00 0.00 28 1014.8
20260507150903 20 136 4.8 11.3 0.00 0.00 0.00 28 1014.8
20260507150404 20 108 1.6 4.8 0.00 0.00 0.00 29 1014.8
20260507144403 19 101 3.2 4.8 0.00 0.00 0.00 31 1014.8
20260507143903 18 116 1.6 4.8 0.00 0.00 0.00 32 1014.9
20260507143403 18 148 1.6 4.8 0.00 0.00 0.00 32 1014.9
20260507142903 18 140 3.2 4.8 0.00 0.00 0.00 31 1014.9
20260507142403 18 58 1.6 4.8 0.00 0.00 0.00 32 1014.9
20260507141903 18 139 1.6 4.8 0.00 0.00 0.00 34 1015.0
20260507141403 17 111 1.6 4.8 0.00 0.00 0.00 35 1015.0
20260507140903 17 128 3.2 4.8 0.00 0.00 0.00 34 1014.9
20260507135903 17 113 1.6 4.8 0.00 0.00 0.00 35 1014.9
20260507135403 17 131 1.6 4.8 0.00 0.00 0.00 36 1014.9
20260507134903 16 104 0.0 4.8 0.00 0.00 0.00 37 1014.8
20260507134403 16 81 1.6 4.8 0.00 0.00 0.00 37 1014.8
20260507133903 16 108 1.6 4.8 0.00 0.00 0.00 39 1014.9
20260507133403 15 95 1.6 3.2 0.00 0.00 0.00 40 1014.8
20260507132403 15 85 1.6 3.2 0.00 0.00 0.00 42 1014.6
20260507131403 13 99 0.0 3.2 0.00 0.00 0.00 47 1014.5
20260507130403 13 101 0.0 0.0 0.00 0.00 0.00 48 1014.4
20260507125903 13 101 0.0 0.0 0.00 0.00 0.00 47 1014.3
20260507125403 13 101 0.0 0.0 0.00 0.00 0.00 47 1014.3
20260507124903 13 101 0.0 1.6 0.00 0.00 0.00 46 1014.3
20260507124403 13 101 0.0 1.6 0.00 0.00 0.00 46 1014.3
20260507123403 13 101 0.0 1.6 0.00 0.00 0.00 45 1014.3
20260507122903 13 101 0.0 1.6 0.00 0.00 0.00 44 1014.2
20260507122404 14 101 0.0 1.6 0.00 0.00 0.00 44 1014.3
20260507121403 14 101 0.0 4.8 0.00 0.00 0.00 42 1014.2
20260507120903 15 107 0.0 4.8 0.00 0.00 0.00 41 1014.2
20260507115903 15 107 1.6 4.8 0.00 0.00 0.00 40 1014.2
20260507115404 15 115 1.6 8.0 0.00 0.00 0.00 40 1014.1
20260507114903 15 95 3.2 8.0 0.00 0.00 0.00 40 1014.1
20260507114403 15 161 3.2 8.0 0.00 0.00 0.00 41 1014.2
20260507113903 14 93 3.2 8.0 0.00 0.00 0.00 43 1014.2
20260507113403 13 114 1.6 3.2 0.00 0.00 0.00 46 1014.2
20260507112904 13 105 0.0 3.2 0.00 0.00 0.00 47 1014.2
20260507111904 13 90 0.0 4.8 0.00 0.00 0.00 48 1014.2
20260507111403 13 93 1.6 3.2 0.00 0.00 0.00 48 1014.2
20260507110403 13 325 0.0 1.6 0.00 0.00 0.00 48 1014.1
20260507105903 13 325 0.0 3.2 0.00 0.00 0.00 47 1014.1
20260507105403 13 325 0.0 3.2 0.00 0.00 0.00 47 1014.1
20260507104903 14 320 0.0 1.6 0.00 0.00 0.00 46 1014.1
20260507104403 13 320 0.0 1.6 0.00 0.00 0.00 46 1014.1
20260507103403 14 320 0.0 1.6 0.00 0.00 0.00 46 1014.2
20260507102903 14 320 0.0 1.6 0.00 0.00 0.00 45 1014.1
20260507101903 14 320 0.0 1.6 0.00 0.00 0.00 44 1014.2
20260507101403 15 320 0.0 1.6 0.00 0.00 0.00 43 1014.3
20260507100903 15 320 0.0 3.2 0.00 0.00 0.00 42 1014.3